SCP
0 0 0 0 0 0 0 0 0 -0 -0 -0 0 0 0 -0 -0 -0 0 0 0 0 0 0 0 0 0 0 0 0 0 0 0 0 0 0 0 0 0 0 0 0 0 0 0 0 0
0 0 0 0 0 0 0 0 0 -0 -0 -0 -0 0 0 -0 -0 -0 0 0 0 0 0 0 0 0 0 -0 0 0 0 0 0 0 0 0 0 0 0 0 0 0 0 0 0 0 0
0 0 0 0 0 0 0 0 0 -0 0 0 -0 -0 -0 -0 -0 -0 0 -0 0 0 0 0 0 0 0 0 0 0 0 0 0 0 0 0 0 0 0 0 0 0 0 0 0 0 0
0 0 0 0 0 0 0 0 0 0 0 0 0 -0 -0 -0 -0 -0 0 -0 0 0 0 0 0 0 0 0 0 0 0 0 0 0 0 0 0 0 0 0 0 0 0 0 0 0 0
0 0 0 0 0 0 0 0 0 0 0 0 0 0 0 0 0 0 0 0 0 0 0 0 0 0 0 0 -0 0 0 0 0 0 0 0 0 0 0 0 0 0 0 0 0 0 0
0 0 0 0 0 0 0 0 0 0 0 0 0 0 0 0 0 0 0 0 0 0 0 -0 -0 0 0 0 -0 0 0 0 0 0 0 0 0 0 0 0 0 0 0 0 0 0 0
0 0 0 0 0 0 0 0 0 0 0 0 0 -0 0 0 0 0 0 0 0 0 -0 -0 0 0 0 0 0 0 0 0 0 0 0 0 0 0 0 0 0 0 0 0 0 0 0
0 0 0 0 0 0 0 0 0 0 0 0 0 0 0 0 0 0 0 0 0 0 0 -0 0 0 0 0 0 0 0 0 0 0 0 0 0 0 0 0 0 0 0 0 0 0 0
0 0 0 0 0 0 0 0 0 0 0 0 0 0 0 0 0 0 0 0 0 0 0 0 0 0 0 0 0 0 0 0 0 0 0 0 0 0 0 0 0 0 0 0 0 0 0
0 0 0 0 0 0 0 0 0 0 0 0 0 0 -0 0 0 0 0 0 0 0 0 0 0 0 0 0 0 0 0 0 0 0 0 0 0 0 0 0 0 0 0 0 0 0 0
0 0 0 0 0 0 0 0 0 0 0 0 0 0 -0 -0 0 0 0 -0 -0 0 0 0 0 0 0 0 0 0 0 0 0 0 0 0 0 0 0 0 0 0 0 0 0 0 0
0 0 0 0 0 0 0 0 0 0 0 0 0 0 0 0 0 0 0 0 0 0 0 0 0 0 0 0 0 0 0 0 0 0 0 0 0 0 0 0 0 0 0 0 0 0 0
-0 0 0 0 0 0 0 0 0 0 0 0 0 0 0 0 0 0 0 0 0 0 0 0 0 0 0 0 0 0 0 0 0 0 0 0 0 0 0 0 0 0 0 0 0 0 0
-0 -0 0 0 0 0 0 0 0 0 0 0 0 0 0 0 0 0 0 0 0 0 0 0 0 0 0 0 0 0 0 0 0 0 0 0 0 0 0 0 0 0 0 0 0 0 0
-0 -0 0 0 0 0 0 0 0 0 0 0 0 0 0 0 0 0 0 0 0 0 0 0 0 0 0 0 0 0 0 0 0 0 0 0 0 0 0 0 0 0 0 0 0 0 0
0 -0 -0 -0 0 0 0 0 0 0 0 0 0 0 0 0 0 0 0 0 0 0 0 0 0 0 0 0 0 0 0 0 0 0 0 0 0 0 0 0 0 0 0 0 0 0 0
0 0 -0 -0 -0 0 0 0 0 0 0 0 0 0 0 0 0 0 0 0 0 0 0 0 0 0 0 0 0 0 0 0 0 0 0 0 0 0 0 0 0 0 0 0 0 0 0
0 0 0 -0 -0 -0 0 0 0 0 0 0 0 0 0 0 0 0 0 0 0 0 0 0 0 0 0 0 0 0 0 0 0 0 0 0 0 0 0 0 0 0 0 0 0 0 0
0 0 0 0 -0 -0 0 0 0 0 0 0 0 0 0 0 0 0 0 0 0 0 0 0 0 0 0 0 0 0 0 0 0 0 0 0 0 0 0 0 0 0 0 0 0 0 0
0 0 0 0 0 -0 0 -0 -0 0 0 0 0 0 0 0 0 0 0 0 0 0 0 0 0 0 0 0 0 0 0 0 0 0 0 0 0 0 0 0 0 0 0 0 0 0 0
0 0 0 -0 -0 0 0 -0 -0 0 0 0 0 0 0 0 0 0 0 0 0 0 0 0 0 0 0 0 0 0 0 0 0 0 0 0 0 0 0 0 0 0 0 0 -0 -0 -0
0 0 0 0 -0 0 0 -0 -0 0 0 0 0 0 0 0 0 0 0 0 0 0 0 0 0 0 0 0 0 0 0 0 0 0 0 0 0 -0 0 0 0 0 0 -0 -0 -0 -0
0 0 0 0 0 0 -0 -0 -0 0 0 0 0 0 0 0 0 0 0 0 0 0 0 0 0 0 0 0 0 0 0 0 0 0 0 0 0 0 0 0 -0 -0 -0 -0 -0 0 -0
0 0 0 0 0 0 -0 -0 -0 -0 0 0 0 0 0 0 0 0 0 0 0 0 0 0 0 0 0 0 0 -0 -0 -0 -0 0 0 0 0 0 0 0 0 -0 -0 0 -0 -0 -0
0 0 0 0 0 0 0 0 -0 -0 0 0 0 0 0 0 0 0 0 0 0 0 0 0 0 0 0 0 0 0 0 0 0 0 0 0 0 0 0 0 -0 0 0 0 0 0 0
0 0 0 0 0 0 0 0 0 0 0 0 0 0 0 -0 0 0 0 0 0 0 0 0 -0 0 -0 -0 -0 -0 -0 0 -0 -0 0 0 -0 0 0 -0 -0 0 0 0 0 0 0
0 0 0 0 0 0 0 0 0 0 0 0 0 0 0 0 0 0 0 0 0 0 0 0 0 0 0 -0 -0 -0 -0 -0 -0 -0 -0 0 0 -0 -0 -0 -0 0 0 0 0 0 0
0 0 0 0 0 0 0 0 0 0 0 0 0 0 0 0 0 0 0 0 0 0 0 0 0 0 0 0 0 0 0 0 0 0 0 0 0 0 0 0 0 0 0 0 0 0 0
0 0 0 0 0 0 0 0 0 0 0 0 0 0 0 0 0 0 0 0 0 0 0 0 0 0 0 0 0 0 0 0 0 0 0 0 0 0 0 0 0 0 0 0 0 0 0
Wind_Speed_500mb
44 42 46 44 44 45 41 45 35 31 33 33 34 33 33 27 21 16 14 22 22 17 14 5 7 26 35 32 1 15 16 27 36 39 38 41 39 21 13 15 10 9 8 16 19 21 21
36 39 39 37 37 42 38 42 31 29 31 32 33 30 30 30 28 22 15 12 16 19 18 14 17 19 29 15 7 25 19 32 35 36 36 37 25 22 23 11 8 14 27 16 18 18 16
34 38 42 41 37 38 38 39 35 29 30 31 32 25 28 25 28 27 23 18 16 16 19 21 26 32 32 13 5 26 21 31 34 38 35 31 35 13 22 15 21 19 13 8 20 10 7
37 39 41 43 35 35 38 38 35 25 29 28 24 21 23 25 25 25 30 24 20 21 26 29 29 23 15 25 26 34 26 28 35 38 31 32 25 29 11 37 13 10 9 9 6 8 6
36 39 40 41 38 30 33 36 35 19 26 25 24 21 22 21 23 26 31 30 26 25 30 31 20 27 11 32 35 27 36 30 41 41 38 31 25 18 11 11 10 13 8 6 2 5 1
35 38 40 40 39 35 32 33 34 20 22 25 21 16 21 22 20 23 30 41 41 24 23 20 28 16 16 11 34 30 33 26 39 43 27 13 13 9 8 7 11 11 12 6 6 4 5
34 38 41 39 39 35 31 31 31 21 19 23 21 20 19 19 12 10 10 9 16 28 60 31 29 16 23 32 29 36 25 28 26 25 9 14 17 9 5 3 8 16 11 10 4 6 5
33 37 39 41 37 33 33 32 30 21 18 17 19 18 19 19 15 17 16 28 27 21 25 38 34 41 45 20 18 20 26 15 19 10 3 14 11 4 8 12 16 14 15 7 3 6 5
30 34 36 38 39 35 30 34 30 24 19 15 19 22 25 36 34 40 47 36 22 16 12 20 29 24 20 26 12 11 27 15 15 13 12 14 2 4 8 13 21 11 13 7 5 6 5
27 32 33 33 36 39 26 28 30 27 23 16 14 17 19 28 26 20 24 23 9 2 8 18 16 12 18 12 12 16 21 9 12 14 10 15 9 8 12 13 5 9 3 8 7 6 4
25 29 32 31 30 35 35 21 23 25 22 20 19 18 12 7 14 16 16 23 18 1 11 19 10 8 15 12 17 17 17 19 9 6 8 5 6 12 15 4 4 8 7 7 5 7 3
22 24 30 33 28 25 32 32 20 16 17 18 16 14 9 4 14 14 18 26 7 10 10 10 12 6 9 12 5 8 6 16 16 20 16 9 5 7 5 7 9 12 10 10 6 4 4
22 21 26 29 30 25 17 23 25 23 20 14 13 11 10 14 13 15 21 14 8 11 3 8 6 4 6 4 9 8 7 9 8 11 9 10 9 6 6 10 7 9 9 5 8 7 8
24 21 21 25 27 26 24 13 8 13 19 21 21 21 19 15 12 12 15 7 18 10 9 3 3 7 10 10 10 7 5 9 12 10 7 9 8 5 7 4 9 6 6 8 10 4 7
25 23 22 21 24 25 25 22 18 12 12 17 23 22 26 21 13 5 3 13 9 8 8 7 1 9 4 7 8 10 8 5 4 3 9 9 6 4 2 2 3 3 6 5 11 3 2
29 25 23 23 22 24 25 27 20 17 11 12 19 14 30 22 16 14 11 12 5 5 6 3 5 6 6 6 7 6 6 2 5 1 5 10 10 1 2 6 13 2 12 6 5 4 6
27 29 27 24 24 25 26 26 27 15 12 11 11 4 26 20 21 20 6 4 6 8 8 6 4 6 6 5 7 4 1 2 3 3 8 8 7 2 4 6 11 4 2 9 7 4 5
27 27 28 29 25 24 26 27 26 21 12 12 8 5 18 16 11 8 4 5 4 2 3 1 4 6 7 8 6 4 8 3 4 7 5 1 9 6 4 2 4 5 8 8 7 7 2
26 29 27 30 30 26 23 25 26 21 12 9 6 4 14 11 7 5 6 5 6 5 5 0 3 2 2 5 7 4 3 4 6 3 9 8 2 6 9 6 5 6 8 7 8 5 10
22 29 29 29 32 31 27 22 22 18 10 8 5 4 7 9 9 13 7 4 5 7 4 5 5 6 5 6 8 6 4 6 4 5 9 5 4 8 10 6 8 8 10 10 10 6 6
17 22 28 28 30 33 32 26 19 15 8 8 6 2 3 2 5 3 3 10 7 2 5 9 7 7 5 5 4 5 3 3 9 5 6 6 2 2 8 10 4 6 7 15 18 13 15
13 17 21 26 27 30 32 31 23 13 5 5 4 3 5 5 3 1 4 5 10 6 9 2 9 4 2 8 7 11 10 6 5 3 4 4 4 3 6 3 8 10 16 18 22 17 23
12 14 16 20 24 26 29 29 28 17 6 3 2 2 0 1 2 4 4 5 7 6 1 2 7 7 5 5 7 10 9 13 13 12 5 4 6 4 7 7 11 12 14 23 10 9 18
15 13 13 16 19 22 24 26 26 21 12 5 3 2 3 4 3 7 4 3 1 3 2 3 4 3 8 14 18 17 18 17 13 14 6 8 6 3 5 9 4 8 3 9 18 10 22
20 15 12 12 14 17 20 21 23 22 15 12 3 3 3 2 4 3 8 8 8 2 4 2 2 6 12 4 6 7 7 4 7 9 3 6 7 4 3 4 13 2 2 8 6 5 8
24 19 14 11 10 12 14 17 19 20 17 12 13 6 3 4 8 1 8 9 7 6 3 3 5 9 6 7 4 6 8 4 4 2 9 8 8 7 3 2 4 7 4 7 5 2 2
28 23 17 12 11 9 10 13 15 16 17 13 11 12 3 2 3 9 4 5 9 6 6 4 8 7 6 4 3 5 4 5 6 12 9 5 2 8 5 7 14 12 9 5 1 7 10
33 27 20 15 12 10 8 10 12 15 16 16 12 15 11 5 6 11 10 6 7 7 7 12 7 2 5 4 6 5 5 8 3 8 11 13 13 8 8 4 11 13 7 3 2 20 38
36 31 24 19 14 10 9 8 11 13 15 16 16 19 19 8 5 8 14 13 12 7 6 13 2 7 10 7 1 4 4 3 8 5 1 6 11 9 16 10 4 13 6 10 20 39 36
Wind_Direction_500mb
5 8 11 10 3 360 4 6 15 15 14 9 16 21 23 31 21 13 21 18 117 100 127 121 136 176 146 145 39 224 120 149 155 160 165 164 159 129 122 116 104 84 122 73 92 94 86
4 5 6 4 359 4 8 5 11 18 15 16 15 17 34 41 34 31 30 36 86 58 70 89 111 138 160 135 288 270 112 141 145 153 155 162 170 144 105 79 68 115 103 96 73 73 69
8 6 8 7 6 359 8 8 7 8 10 11 14 17 29 35 34 33 42 52 62 69 77 85 108 122 121 67 151 228 95 128 138 148 151 161 156 156 118 102 118 111 81 66 28 31 60
9 7 9 9 10 5 4 6 9 9 14 17 28 29 24 32 40 48 49 55 66 73 80 108 115 107 69 120 117 103 91 109 133 137 146 136 138 115 82 117 64 67 60 108 343 10 27
9 9 8 11 13 8 6 5 8 14 17 21 31 28 30 37 52 60 66 64 73 83 81 92 92 117 64 102 110 103 41 94 119 124 126 126 130 91 100 91 59 23 135 100 115 45 83
10 11 10 13 12 12 14 9 11 20 16 18 33 42 40 49 63 85 84 78 70 105 91 74 59 85 45 75 136 90 33 87 119 119 114 91 76 81 44 69 170 152 116 86 135 337 31
9 11 14 15 17 14 17 14 19 25 28 25 47 69 54 54 58 48 75 91 72 40 62 36 53 74 58 96 120 133 21 91 103 101 73 34 74 82 92 47 115 114 102 106 21 7 349
4 9 14 18 19 16 20 24 27 34 37 48 46 59 39 42 67 19 69 87 90 119 65 62 62 58 43 66 98 111 19 62 89 77 31 48 67 338 104 84 87 78 101 61 16 17 13
6 7 12 18 24 25 22 31 36 41 49 57 52 45 66 85 82 91 73 74 86 106 91 35 24 39 25 63 67 125 22 42 68 64 55 94 126 353 93 60 78 38 101 127 145 357 49
11 7 9 18 25 35 27 27 39 50 54 59 45 46 82 99 85 87 52 40 27 140 82 8 2 29 14 93 48 64 21 52 51 109 82 74 352 85 69 75 84 80 27 103 81 83 228
10 10 8 13 21 37 35 25 26 43 57 58 50 44 84 98 57 23 3 359 357 125 62 332 7 0 32 77 144 26 31 52 65 66 95 276 42 60 59 22 52 147 99 86 87 91 60
9 13 9 10 16 24 46 37 19 13 28 44 50 50 52 3 335 346 345 342 358 45 52 357 344 29 63 50 53 79 60 80 88 66 49 89 55 53 95 39 72 138 81 53 61 68 26
10 12 13 9 13 11 19 51 47 35 25 13 9 356 331 317 324 326 330 338 47 66 250 11 357 292 46 64 50 67 43 32 93 88 20 8 359 345 81 76 34 75 65 9 9 15 224
3 9 14 9 7 12 5 347 10 12 9 7 9 1 353 344 318 314 339 55 67 358 63 168 262 339 63 29 42 33 77 48 35 75 99 119 338 6 347 72 153 68 126 146 185 201 283
6 2 3 8 3 2 2 357 343 318 340 351 351 352 4 2 5 357 63 51 148 194 169 183 231 79 36 36 100 69 48 86 24 61 117 126 4 298 247 99 88 180 63 169 105 52 354
11 5 0 353 358 359 1 356 345 341 326 344 350 359 12 14 23 36 67 108 86 157 121 12 56 32 85 40 84 68 40 277 115 107 156 186 98 304 118 100 31 96 151 80 16 100 283
4 10 5 356 350 352 357 2 355 341 344 346 7 44 8 10 30 45 80 81 109 168 171 170 158 90 85 91 62 57 107 291 179 108 91 141 100 178 89 196 176 102 112 56 114 107 161
3 4 8 5 355 349 351 357 1 351 329 354 2 41 5 29 49 45 39 0 355 115 170 278 6 91 140 165 127 163 174 220 175 155 93 102 118 141 186 338 164 163 172 153 126 205 110
10 6 9 10 4 356 352 351 355 355 345 326 356 32 21 65 92 351 319 26 50 29 19 162 104 74 127 117 108 120 116 19 139 91 156 186 58 83 355 2 8 209 197 138 104 91 198
12 14 15 14 9 9 359 356 353 358 3 2 357 31 42 58 98 136 135 15 36 17 52 49 65 50 68 53 25 131 108 36 62 83 82 92 117 164 180 191 134 193 183 178 145 145 186
3 9 14 16 16 10 10 1 3 4 31 8 3 68 86 287 4 58 121 153 139 68 31 29 47 69 113 103 66 94 89 68 39 79 55 85 183 66 266 248 251 229 181 183 203 191 198
341 352 5 12 13 16 13 8 7 7 351 357 325 149 109 87 74 259 353 228 163 188 162 179 127 174 95 143 170 187 142 178 184 37 79 8 170 131 280 53 192 252 222 213 220 236 261
306 330 345 358 9 12 17 14 10 10 357 332 334 154 147 93 81 96 248 194 217 147 185 72 150 129 135 154 125 97 102 120 154 148 131 86 121 62 277 358 310 299 228 194 186 205 213
278 302 324 340 355 7 12 18 18 16 13 337 284 219 223 252 164 200 154 114 97 336 9 64 120 108 137 125 108 97 80 81 81 47 74 132 101 72 269 350 16 248 161 180 201 227 216
263 279 300 321 339 353 5 10 18 24 23 24 353 241 232 246 228 232 183 143 127 68 51 75 128 118 145 127 60 51 4 76 45 42 52 75 108 78 101 247 291 9 165 141 170 341 207
251 264 281 296 315 335 349 4 11 18 20 25 28 13 292 133 251 170 162 184 166 163 39 140 138 162 171 88 96 166 206 178 184 51 47 62 69 117 157 278 244 222 222 196 174 285 69
241 251 265 278 291 309 327 344 2 9 12 9 15 19 358 229 208 179 178 192 160 137 134 163 166 162 169 99 144 176 237 159 171 174 174 124 77 185 199 266 285 249 227 143 23 228 327
233 240 250 261 274 287 301 325 339 353 2 4 353 357 351 294 236 215 211 201 169 181 151 156 108 194 72 135 162 204 166 216 183 186 181 172 154 192 161 208 284 191 112 241 260 334 327
228 231 239 247 254 264 277 294 315 331 339 345 344 341 334 268 251 219 225 229 227 205 186 176 195 168 166 100 197 107 191 136 173 244 10 240 193 179 190 212 272 175 280 302 341 320 318
Wind_Speed_850mb
44 42 46 44 44 45 41 45 35 31 33 33 34 33 33 27 21 16 14 22 22 17 14 5 7 26 35 32 1 15 16 27 36 39 38 41 39 21 13 15 10 9 8 16 19 21 21
36 39 39 37 37 42 38 42 31 29 31 32 33 30 30 30 28 22 15 12 16 19 18 14 17 19 29 15 7 25 19 32 35 36 36 37 25 22 23 11 8 14 27 16 18 18 16
34 38 42 41 37 38 38 39 35 29 30 31 32 25 28 25 28 27 23 18 16 16 19 21 26 32 32 13 5 26 21 31 34 38 35 31 35 13 22 15 21 19 13 8 20 10 7
37 39 41 43 35 35 38 38 35 25 29 28 24 21 23 25 25 25 30 24 20 21 26 29 29 23 15 25 26 34 26 28 35 38 31 32 25 29 11 37 13 10 9 9 6 8 6
36 39 40 41 38 30 33 36 35 19 26 25 24 21 22 21 23 26 31 30 26 25 30 31 20 27 11 32 35 27 36 30 41 41 38 31 25 18 11 11 10 13 8 6 2 5 1
35 38 40 40 39 35 32 33 34 20 22 25 21 16 21 22 20 23 30 41 41 24 23 20 28 16 16 11 34 30 33 26 39 43 27 13 13 9 8 7 11 11 12 6 6 4 5
34 38 41 39 39 35 31 31 31 21 19 23 21 20 19 19 12 10 10 9 16 28 60 31 29 16 23 32 29 36 25 28 26 25 9 14 17 9 5 3 8 16 11 10 4 6 5
33 37 39 41 37 33 33 32 30 21 18 17 19 18 19 19 15 17 16 28 27 21 25 38 34 41 45 20 18 20 26 15 19 10 3 14 11 4 8 12 16 14 15 7 3 6 5
30 34 36 38 39 35 30 34 30 24 19 15 19 22 25 36 34 40 47 36 22 16 12 20 29 24 20 26 12 11 27 15 15 13 12 14 2 4 8 13 21 11 13 7 5 6 5
27 32 33 33 36 39 26 28 30 27 23 16 14 17 19 28 26 20 24 23 9 2 8 18 16 12 18 12 12 16 21 9 12 14 10 15 9 8 12 13 5 9 3 8 7 6 4
25 29 32 31 30 35 35 21 23 25 22 20 19 18 12 7 14 16 16 23 18 1 11 19 10 8 15 12 17 17 17 19 9 6 8 5 6 12 15 4 4 8 7 7 5 7 3
22 24 30 33 28 25 32 32 20 16 17 18 16 14 9 4 14 14 18 26 7 10 10 10 12 6 9 12 5 8 6 16 16 20 16 9 5 7 5 7 9 12 10 10 6 4 4
22 21 26 29 30 25 17 23 25 23 20 14 13 11 10 14 13 15 21 14 8 11 3 8 6 4 6 4 9 8 7 9 8 11 9 10 9 6 6 10 7 9 9 5 8 7 8
24 21 21 25 27 26 24 13 8 13 19 21 21 21 19 15 12 12 15 7 18 10 9 3 3 7 10 10 10 7 5 9 12 10 7 9 8 5 7 4 9 6 6 8 10 4 7
25 23 22 21 24 25 25 22 18 12 12 17 23 22 26 21 13 5 3 13 9 8 8 7 1 9 4 7 8 10 8 5 4 3 9 9 6 4 2 2 3 3 6 5 11 3 2
29 25 23 23 22 24 25 27 20 17 11 12 19 14 30 22 16 14 11 12 5 5 6 3 5 6 6 6 7 6 6 2 5 1 5 10 10 1 2 6 13 2 12 6 5 4 6
27 29 27 24 24 25 26 26 27 15 12 11 11 4 26 20 21 20 6 4 6 8 8 6 4 6 6 5 7 4 1 2 3 3 8 8 7 2 4 6 11 4 2 9 7 4 5
27 27 28 29 25 24 26 27 26 21 12 12 8 5 18 16 11 8 4 5 4 2 3 1 4 6 7 8 6 4 8 3 4 7 5 1 9 6 4 2 4 5 8 8 7 7 2
26 29 27 30 30 26 23 25 26 21 12 9 6 4 14 11 7 5 6 5 6 5 5 0 3 2 2 5 7 4 3 4 6 3 9 8 2 6 9 6 5 6 8 7 8 5 10
22 29 29 29 32 31 27 22 22 18 10 8 5 4 7 9 9 13 7 4 5 7 4 5 5 6 5 6 8 6 4 6 4 5 9 5 4 8 10 6 8 8 10 10 10 6 6
17 22 28 28 30 33 32 26 19 15 8 8 6 2 3 2 5 3 3 10 7 2 5 9 7 7 5 5 4 5 3 3 9 5 6 6 2 2 8 10 4 6 7 15 18 13 15
13 17 21 26 27 30 32 31 23 13 5 5 4 3 5 5 3 1 4 5 10 6 9 2 9 4 2 8 7 11 10 6 5 3 4 4 4 3 6 3 8 10 16 18 22 17 23
12 14 16 20 24 26 29 29 28 17 6 3 2 2 0 1 2 4 4 5 7 6 1 2 7 7 5 5 7 10 9 13 13 12 5 4 6 4 7 7 11 12 14 23 10 9 18
15 13 13 16 19 22 24 26 26 21 12 5 3 2 3 4 3 7 4 3 1 3 2 3 4 3 8 14 18 17 18 17 13 14 6 8 6 3 5 9 4 8 3 9 18 10 22
20 15 12 12 14 17 20 21 23 22 15 12 3 3 3 2 4 3 8 8 8 2 4 2 2 6 12 4 6 7 7 4 7 9 3 6 7 4 3 4 13 2 2 8 6 5 8
24 19 14 11 10 12 14 17 19 20 17 12 13 6 3 4 8 1 8 9 7 6 3 3 5 9 6 7 4 6 8 4 4 2 9 8 8 7 3 2 4 7 4 7 5 2 2
28 23 17 12 11 9 10 13 15 16 17 13 11 12 3 2 3 9 4 5 9 6 6 4 8 7 6 4 3 5 4 5 6 12 9 5 2 8 5 7 14 12 9 5 1 7 10
33 27 20 15 12 10 8 10 12 15 16 16 12 15 11 5 6 11 10 6 7 7 7 12 7 2 5 4 6 5 5 8 3 8 11 13 13 8 8 4 11 13 7 3 2 20 38
36 31 24 19 14 10 9 8 11 13 15 16 16 19 19 8 5 8 14 13 12 7 6 13 2 7 10 7 1 4 4 3 8 5 1 6 11 9 16 10 4 13 6 10 20 39 36
Wind_Direction_850mb
5 8 11 10 3 360 4 6 15 15 14 9 16 21 23 31 21 13 21 18 117 100 127 121 136 176 146 145 39 224 120 149 155 160 165 164 159 129 122 116 104 84 122 73 92 94 86
4 5 6 4 359 4 8 5 11 18 15 16 15 17 34 41 34 31 30 36 86 58 70 89 111 138 160 135 288 270 112 141 145 153 155 162 170 144 105 79 68 115 103 96 73 73 69
8 6 8 7 6 359 8 8 7 8 10 11 14 17 29 35 34 33 42 52 62 69 77 85 108 122 121 67 151 228 95 128 138 148 151 161 156 156 118 102 118 111 81 66 28 31 60
9 7 9 9 10 5 4 6 9 9 14 17 28 29 24 32 40 48 49 55 66 73 80 108 115 107 69 120 117 103 91 109 133 137 146 136 138 115 82 117 64 67 60 108 343 10 27
9 9 8 11 13 8 6 5 8 14 17 21 31 28 30 37 52 60 66 64 73 83 81 92 92 117 64 102 110 103 41 94 119 124 126 126 130 91 100 91 59 23 135 100 115 45 83
10 11 10 13 12 12 14 9 11 20 16 18 33 42 40 49 63 85 84 78 70 105 91 74 59 85 45 75 136 90 33 87 119 119 114 91 76 81 44 69 170 152 116 86 135 337 31
9 11 14 15 17 14 17 14 19 25 28 25 47 69 54 54 58 48 75 91 72 40 62 36 53 74 58 96 120 133 21 91 103 101 73 34 74 82 92 47 115 114 102 106 21 7 349
4 9 14 18 19 16 20 24 27 34 37 48 46 59 39 42 67 19 69 87 90 119 65 62 62 58 43 66 98 111 19 62 89 77 31 48 67 338 104 84 87 78 101 61 16 17 13
6 7 12 18 24 25 22 31 36 41 49 57 52 45 66 85 82 91 73 74 86 106 91 35 24 39 25 63 67 125 22 42 68 64 55 94 126 353 93 60 78 38 101 127 145 357 49
11 7 9 18 25 35 27 27 39 50 54 59 45 46 82 99 85 87 52 40 27 140 82 8 2 29 14 93 48 64 21 52 51 109 82 74 352 85 69 75 84 80 27 103 81 83 228
10 10 8 13 21 37 35 25 26 43 57 58 50 44 84 98 57 23 3 359 357 125 62 332 7 0 32 77 144 26 31 52 65 66 95 276 42 60 59 22 52 147 99 86 87 91 60
9 13 9 10 16 24 46 37 19 13 28 44 50 50 52 3 335 346 345 342 358 45 52 357 344 29 63 50 53 79 60 80 88 66 49 89 55 53 95 39 72 138 81 53 61 68 26
10 12 13 9 13 11 19 51 47 35 25 13 9 356 331 317 324 326 330 338 47 66 250 11 357 292 46 64 50 67 43 32 93 88 20 8 359 345 81 76 34 75 65 9 9 15 224
3 9 14 9 7 12 5 347 10 12 9 7 9 1 353 344 318 314 339 55 67 358 63 168 262 339 63 29 42 33 77 48 35 75 99 119 338 6 347 72 153 68 126 146 185 201 283
6 2 3 8 3 2 2 357 343 318 340 351 351 352 4 2 5 357 63 51 148 194 169 183 231 79 36 36 100 69 48 86 24 61 117 126 4 298 247 99 88 180 63 169 105 52 354
11 5 0 353 358 359 1 356 345 341 326 344 350 359 12 14 23 36 67 108 86 157 121 12 56 32 85 40 84 68 40 277 115 107 156 186 98 304 118 100 31 96 151 80 16 100 283
4 10 5 356 350 352 357 2 355 341 344 346 7 44 8 10 30 45 80 81 109 168 171 170 158 90 85 91 62 57 107 291 179 108 91 141 100 178 89 196 176 102 112 56 114 107 161
3 4 8 5 355 349 351 357 1 351 329 354 2 41 5 29 49 45 39 0 355 115 170 278 6 91 140 165 127 163 174 220 175 155 93 102 118 141 186 338 164 163 172 153 126 205 110
10 6 9 10 4 356 352 351 355 355 345 326 356 32 21 65 92 351 319 26 50 29 19 162 104 74 127 117 108 120 116 19 139 91 156 186 58 83 355 2 8 209 197 138 104 91 198
12 14 15 14 9 9 359 356 353 358 3 2 357 31 42 58 98 136 135 15 36 17 52 49 65 50 68 53 25 131 108 36 62 83 82 92 117 164 180 191 134 193 183 178 145 145 186
3 9 14 16 16 10 10 1 3 4 31 8 3 68 86 287 4 58 121 153 139 68 31 29 47 69 113 103 66 94 89 68 39 79 55 85 183 66 266 248 251 229 181 183 203 191 198
341 352 5 12 13 16 13 8 7 7 351 357 325 149 109 87 74 259 353 228 163 188 162 179 127 174 95 143 170 187 142 178 184 37 79 8 170 131 280 53 192 252 222 213 220 236 261
306 330 345 358 9 12 17 14 10 10 357 332 334 154 147 93 81 96 248 194 217 147 185 72 150 129 135 154 125 97 102 120 154 148 131 86 121 62 277 358 310 299 228 194 186 205 213
278 302 324 340 355 7 12 18 18 16 13 337 284 219 223 252 164 200 154 114 97 336 9 64 120 108 137 125 108 97 80 81 81 47 74 132 101 72 269 350 16 248 161 180 201 227 216
263 279 300 321 339 353 5 10 18 24 23 24 353 241 232 246 228 232 183 143 127 68 51 75 128 118 145 127 60 51 4 76 45 42 52 75 108 78 101 247 291 9 165 141 170 341 207
251 264 281 296 315 335 349 4 11 18 20 25 28 13 292 133 251 170 162 184 166 163 39 140 138 162 171 88 96 166 206 178 184 51 47 62 69 117 157 278 244 222 222 196 174 285 69
241 251 265 278 291 309 327 344 2 9 12 9 15 19 358 229 208 179 178 192 160 137 134 163 166 162 169 99 144 176 237 159 171 174 174 124 77 185 199 266 285 249 227 143 23 228 327
233 240 250 261 274 287 301 325 339 353 2 4 353 357 351 294 236 215 211 201 169 181 151 156 108 194 72 135 162 204 166 216 183 186 181 172 154 192 161 208 284 191 112 241 260 334 327
228 231 239 247 254 264 277 294 315 331 339 345 344 341 334 268 251 219 225 229 227 205 186 176 195 168 166 100 197 107 191 136 173 244 10 240 193 179 190 212 272 175 280 302 341 320 318